Weather History for KFXY - March, 2014

Change the Weather History Date:

Wednesday, March 26, 2014

  Actual Average Record
Temperature  
Mean Temperature 30 °F -  
Max Temperature 46 °F 46 °F 51 °F (2012)
Min Temperature 15 °F 27 °F 15 °F (2014)
Degree Days  
Heating Degree Days 34    
Moisture  
Dew Point 20 °F    
Average Humidity 64    
Maximum Humidity 86    
Minimum Humidity 40    
Precipitation  
Precipitation 0.00 in - - ()
Sea Level Pressure  
Sea Level Pressure 29.90 in    
Wind  
Wind Speed - (North)    
Max Wind Speed -    
Max Gust Speed -    
Visibility 10 miles    
Events      
Averages and records for this station are not official NWS values.
T = Trace of Precipitation, MM = Missing Value Source: NWS Daily Summary

Daily Weather History Graph

Daily Weather History Graph

Search for Another Location

Airport or City:

Trip Planner

Search our weather history database for the weather conditions in past years. The results will help you decide how hot, cold, wet, or windy it might be!

Date:

Astronomy

Mar. 26, 2014 Rise Set
Actual Time 7:06 AM CDT 7:33 PM CDT
Civil Twilight 6:38 AM CDT 8:02 PM CDT
Nautical Twilight 6:04 AM CDT 8:36 PM CDT
Astronomical Twilight 5:30 AM CDT 9:11 PM CDT
Moon 4:23 AM CDT (3/26) 3:06 PM CDT (3/26)
Length of Visible Light 13h 24m
Length of Day
12h 26m
Waning Crescent, 21% of the Moon is Illuminated
Mar 26
Waning Crescent
Mar 30
New
Apr 7
First Quarter
Apr 15
Full
Apr 22
Last Quarter

Hourly Weather History & Observations

Time (CDT) Temp. Dew Point Humidity Pressure Visibility Wind Dir Wind Speed Gust Speed Precip Events Conditions
12:15 AM 17.6 °F 12.2 °F 79% 30.16 in 10.0 mi North - - N/A   Clear
12:35 AM 17.6 °F 12.2 °F 79% 30.16 in 10.0 mi North - - N/A   Clear
12:55 AM 15.8 °F 12.2 °F 86% 30.14 in 10.0 mi North - - N/A   Clear
1:15 AM 15.8 °F 12.2 °F 86% 30.14 in 10.0 mi North - - N/A   Clear
1:35 AM 15.8 °F 12.2 °F 86% 30.14 in 10.0 mi North - - N/A   Clear
1:55 AM 17.6 °F 12.2 °F 79% 30.15 in 10.0 mi North - - N/A   Clear
2:15 AM 17.6 °F 12.2 °F 79% 30.14 in 10.0 mi North - - N/A   Clear
2:35 AM 17.6 °F 12.2 °F 79% 30.13 in 10.0 mi North - - N/A   Clear
2:55 AM 17.6 °F 12.2 °F 79% 30.13 in 10.0 mi North - - N/A   Clear
3:15 AM 17.6 °F 12.2 °F 79% 30.13 in 10.0 mi North - - N/A   Clear
3:35 AM 17.6 °F 12.2 °F 79% 30.12 in 10.0 mi North - - N/A   Clear
3:55 AM 17.6 °F 12.2 °F 79% 30.11 in 10.0 mi North - - N/A   Clear
4:15 AM 17.6 °F 12.2 °F 79% 30.10 in 10.0 mi North - - N/A   Clear
4:35 AM 19.4 °F 14.0 °F 80% 30.11 in 10.0 mi North - - N/A   Mostly Cloudy
4:55 AM 19.4 °F 12.2 °F 74% 30.10 in 10.0 mi North - - N/A   Scattered Clouds
5:15 AM 17.6 °F 12.2 °F 79% 30.10 in 10.0 mi North - - N/A   Clear
5:35 AM 19.4 °F 14.0 °F 80% 30.10 in 10.0 mi North - - N/A   Mostly Cloudy
5:55 AM 19.4 °F 14.0 °F 80% 30.09 in 10.0 mi North - - N/A   Overcast
6:15 AM 19.4 °F 14.0 °F 80% 30.09 in 10.0 mi North - - N/A   Scattered Clouds
6:35 AM 19.4 °F 14.0 °F 80% 30.09 in 10.0 mi North - - N/A   Scattered Clouds
6:55 AM 19.4 °F 14.0 °F 80% 30.08 in 10.0 mi North - - N/A   Scattered Clouds
7:15 AM 19.4 °F 14.0 °F 80% 30.07 in 10.0 mi North - - N/A   Scattered Clouds
7:35 AM 21.2 °F 14.0 °F 74% 30.06 in 10.0 mi North - - N/A   Mostly Cloudy
7:55 AM 21.2 °F 14.0 °F 74% 30.05 in 10.0 mi North - - N/A   Overcast
8:15 AM 23.0 °F 15.8 °F 74% 30.05 in 10.0 mi North - - N/A   Overcast
8:35 AM 23.0 °F 17.6 °F 80% 30.04 in 10.0 mi North - - N/A   Scattered Clouds
8:55 AM 26.6 °F 17.6 °F 69% 30.03 in 10.0 mi North - - N/A   Clear
9:15 AM 26.6 °F 17.6 °F 69% 30.03 in 10.0 mi North - - N/A   Clear
9:35 AM 28.4 °F 17.6 °F 64% 30.02 in 10.0 mi North - - N/A   Clear
9:55 AM 30.2 °F 17.6 °F 60% 30.01 in 10.0 mi North - - N/A   Clear
10:15 AM 30.2 °F 17.6 °F 60% 30.00 in 10.0 mi North - - N/A   Clear
10:35 AM 32.0 °F 17.6 °F 55% 29.99 in 10.0 mi North - - N/A   Clear
10:55 AM 32.0 °F 17.6 °F 55% 29.97 in 10.0 mi North - - N/A   Clear
11:15 AM 33.8 °F 19.4 °F 56% 29.96 in 10.0 mi North - - N/A   Clear
11:35 AM 33.8 °F 21.2 °F 60% 29.94 in 10.0 mi North - - N/A   Clear
11:55 AM 35.6 °F 21.2 °F 56% 29.92 in 10.0 mi North - - N/A   Clear
12:15 PM - - N/A% - - North - - N/A   Unknown
12:35 PM 39.2 °F 23.0 °F 52% 29.89 in 10.0 mi North - - N/A   Clear
12:55 PM 39.2 °F 21.2 °F 49% 29.85 in 10.0 mi North - - N/A   Clear
1:15 PM 41.0 °F 21.2 °F 45% 29.84 in 10.0 mi North - - N/A   Clear
1:35 PM 41.0 °F 23.0 °F 49% 29.83 in 10.0 mi North - - N/A   Clear
1:55 PM 42.8 °F 21.2 °F 42% 29.82 in 10.0 mi North - - N/A   Clear
2:15 PM 42.8 °F 23.0 °F 46% 29.80 in 10.0 mi North - - N/A   Clear
2:35 PM 44.6 °F 23.0 °F 43% 29.78 in 10.0 mi North - - N/A   Clear
2:55 PM 44.6 °F 23.0 °F 43% 29.77 in 10.0 mi North - - N/A   Clear
3:35 PM 46.4 °F 23.0 °F 40% 29.74 in 10.0 mi North - - N/A   Clear
4:35 PM 46.4 °F 23.0 °F 40% 29.71 in 10.0 mi North - - N/A   Clear
5:15 PM 44.6 °F 24.8 °F 46% 29.70 in 10.0 mi North - - N/A   Scattered Clouds
5:55 PM 44.6 °F 24.8 °F 46% 29.68 in 10.0 mi North - - N/A   Clear
6:15 PM 44.6 °F 26.6 °F 49% 29.67 in 10.0 mi North - - N/A   Mostly Cloudy
6:35 PM 42.8 °F 24.8 °F 49% 29.67 in 10.0 mi North - - N/A   Overcast
6:55 PM 42.8 °F 24.8 °F 49% 29.65 in 10.0 mi North - - N/A   Overcast
7:15 PM 42.8 °F 26.6 °F 53% 29.64 in 10.0 mi North - - N/A   Overcast
7:35 PM 42.8 °F 26.6 °F 53% 29.63 in 10.0 mi North - - N/A   Overcast
7:55 PM 42.8 °F 26.6 °F 53% 29.62 in 10.0 mi North - - N/A   Overcast
8:15 PM 42.8 °F 26.6 °F 53% 29.62 in 10.0 mi North - - N/A   Overcast
8:35 PM 41.0 °F 26.6 °F 57% 29.61 in 10.0 mi North - - N/A   Overcast
8:55 PM 41.0 °F 26.6 °F 57% 29.62 in 10.0 mi North - - N/A   Overcast
9:15 PM 39.2 °F 26.6 °F 61% 29.61 in 10.0 mi North - - N/A   Overcast
9:35 PM 41.0 °F 26.6 °F 57% 29.61 in 10.0 mi North - - N/A   Overcast
9:55 PM 41.0 °F 28.4 °F 61% 29.61 in 10.0 mi North - - N/A   Overcast
10:15 PM 41.0 °F 28.4 °F 61% 29.61 in 10.0 mi North - - N/A   Overcast
10:35 PM 41.0 °F 28.4 °F 61% 29.62 in 10.0 mi North - - N/A   Overcast
10:55 PM 42.8 °F 28.4 °F 57% 29.62 in 10.0 mi North - - N/A   Overcast
11:15 PM 41.0 °F 30.2 °F 65% 29.61 in 10.0 mi North - - N/A   Overcast
11:35 PM 41.0 °F 32.0 °F 70% 29.61 in 10.0 mi North - - N/A   Overcast
11:55 PM 42.8 °F 35.6 °F 76% 29.60 in 10.0 mi North - - N/A   Overcast